Wind_Speed
24 26 25 25 24 22 21 20 20 20 19 17 17 17 16 16 15 14 13 13 12 11 10 9 9 9 9 9 9 9 9 9 8 8 8 8 9 9 9 10 10 9 9 10 9 9 10 11 12 12 12 12 11 11 12 13 13 12 11 11 10 10 10 10 13 14 10 9 10 10 10 9 9 10 10 8 7 8 10 12 13 13 16 19 20
24 26 26 25 24 23 21 20 20 20 19 19 18 17 16 16 15 14 14 13 12 11 9 8 8 8 9 9 9 9 9 8 7 8 8 8 8 9 9 10 9 8 9 9 9 9 10 10 11 12 13 13 12 12 12 12 11 10 9 10 11 10 9 10 11 13 12 10 10 11 11 11 11 12 11 11 11 11 12 12 13 15 18 20 21
23 25 25 25 24 23 22 21 19 19 20 20 19 18 17 16 16 15 13 12 11 10 8 7 7 8 8 9 9 8 8 8 7 7 7 7 7 8 9 9 9 8 9 9 8 8 10 10 11 11 12 13 12 12 12 11 10 9 8 9 9 8 8 8 9 11 13 12 11 12 13 14 15 15 14 13 13 14 14 15 16 17 19 21 21
22 24 24 24 23 22 22 21 20 20 20 21 20 19 18 16 15 14 13 12 12 10 9 8 8 8 9 9 9 8 8 8 8 7 7 7 8 8 9 9 9 8 8 8 9 9 10 10 10 11 11 12 12 12 12 11 11 11 9 8 8 8 7 7 7 9 12 13 13 14 15 17 18 17 16 15 14 15 16 16 17 18 19 20 20
21 23 24 23 23 22 22 22 21 20 21 21 20 19 18 16 15 14 13 14 14 12 10 10 10 10 9 9 9 8 8 8 9 8 7 8 9 9 9 10 10 10 9 10 10 10 11 10 10 11 11 12 11 11 12 12 12 12 10 8 7 6 6 6 7 9 12 14 15 16 17 18 17 16 15 16 15 15 15 15 16 18 18 18 18
21 22 24 24 23 22 23 23 22 21 21 21 20 19 18 17 15 14 14 15 14 13 12 12 12 12 11 10 9 9 8 9 9 9 8 9 10 10 10 10 11 11 11 11 11 11 11 11 11 11 12 12 12 11 12 12 12 11 9 7 7 6 6 6 7 10 12 14 17 18 18 17 16 15 14 16 16 16 16 16 16 17 18 17 16
24 23 24 24 23 23 23 23 22 21 21 20 20 20 19 17 16 15 14 15 15 15 15 15 15 14 13 12 11 10 9 9 9 10 10 11 12 12 12 12 12 13 12 11 11 12 12 12 13 13 13 13 12 12 12 12 12 11 9 9 9 8 7 6 8 11 14 16 18 19 17 15 15 15 14 15 15 16 18 19 18 19 17 15 15
26 25 25 25 24 22 21 21 21 20 18 18 19 21 21 18 16 16 16 17 17 16 16 16 16 16 15 14 13 12 12 12 12 11 11 12 13 14 13 13 14 14 14 13 12 12 12 12 13 13 13 13 13 12 12 12 11 11 10 10 10 9 8 8 10 13 15 18 20 18 16 15 14 14 14 14 15 15 17 19 20 19 16 14 13
25 25 24 24 23 21 19 19 20 19 17 16 17 19 21 19 17 17 18 19 19 19 18 18 17 17 17 17 16 16 16 15 14 14 14 13 13 14 13 14 15 15 14 14 13 13 13 12 12 12 12 12 11 12 12 11 11 11 11 12 12 12 12 12 12 14 17 19 18 16 15 15 14 14 14 15 16 17 18 17 17 17 15 12 11
25 24 24 23 22 21 19 18 19 18 17 17 16 17 19 20 20 20 20 20 20 20 20 20 20 20 20 19 19 20 20 18 16 16 16 15 14 14 14 14 15 16 16 15 15 14 13 13 13 12 12 11 11 12 11 11 12 12 12 13 13 14 15 15 14 15 17 17 16 15 15 15 14 14 15 15 16 17 16 16 15 14 13 12 10
26 25 24 24 24 23 21 20 19 19 19 19 18 18 19 21 22 23 23 23 22 21 20 20 21 22 23 23 22 22 21 19 18 18 18 18 17 16 16 15 16 18 18 17 16 15 14 14 13 12 12 11 11 11 11 11 12 13 13 13 14 15 17 17 16 16 17 16 15 15 15 15 14 14 15 16 16 16 15 15 14 12 12 13 12
27 26 25 25 25 25 24 22 21 22 22 21 21 21 21 22 23 25 26 25 25 24 23 21 20 21 22 23 23 23 21 20 20 20 20 20 20 19 18 17 18 19 20 19 17 15 14 14 13 12 11 11 11 11 11 11 12 13 13 14 15 16 17 17 17 17 17 16 16 15 15 16 15 15 16 16 17 16 14 13 12 10 11 13 13
27 26 24 23 25 25 25 24 24 25 25 24 23 23 23 24 25 26 27 27 27 27 27 26 25 23 22 22 22 22 21 21 21 21 22 22 21 21 20 19 19 19 21 21 19 17 15 15 14 14 13 13 13 14 14 13 13 13 13 14 14 16 17 17 17 17 17 17 16 15 16 17 16 15 16 17 17 16 15 13 11 9 10 12 12
25 24 22 22 24 24 24 25 26 26 26 26 26 26 26 26 26 27 27 28 29 29 29 29 28 27 25 24 23 22 21 20 20 21 22 22 22 20 19 19 19 21 23 23 22 20 18 17 16 16 17 16 16 16 16 15 15 14 14 14 15 16 17 18 18 18 18 17 16 16 16 17 17 16 16 17 17 16 15 15 12 11 11 12 11
24 23 22 22 23 24 24 25 26 26 27 27 27 27 27 27 27 28 29 29 30 30 29 29 27 26 26 26 25 24 23 22 21 21 22 22 23 23 23 22 21 21 23 24 25 24 22 21 20 19 19 18 18 17 17 16 15 15 14 14 14 15 17 17 18 18 18 17 17 18 18 17 17 17 17 17 16 15 15 15 14 12 11 10 8
24 24 23 23 24 25 25 25 26 26 27 28 28 28 28 28 28 29 29 29 30 29 28 26 24 23 23 24 24 24 24 24 24 24 23 23 24 26 28 29 29 26 24 23 24 25 25 24 24 22 21 21 20 20 18 16 15 15 14 14 14 15 16 17 17 18 17 18 18 18 18 18 17 17 17 17 16 15 14 12 11 10 8 7 7
22 22 21 22 23 24 25 25 26 26 26 26 27 27 28 29 29 30 30 29 28 28 27 27 26 25 24 24 24 24 26 26 26 26 26 26 27 27 28 29 31 32 30 26 24 25 27 27 26 25 24 22 22 21 19 17 16 15 15 14 15 15 16 17 17 17 17 18 18 19 19 18 17 16 17 17 16 14 11 9 9 8 8 8 9
17 18 18 19 21 22 22 23 24 24 23 23 22 23 24 25 26 27 27 27 27 28 28 29 28 28 28 27 27 28 30 30 29 29 30 30 31 31 30 28 28 30 30 29 27 27 28 28 27 26 25 23 23 21 20 18 17 16 16 16 16 17 17 18 17 17 18 18 18 18 18 17 16 16 16 16 15 13 11 10 9 9 10 11 12
13 14 15 15 16 18 19 20 20 20 20 20 20 21 22 23 24 24 24 24 25 26 27 26 26 27 28 29 31 32 32 33 33 32 33 33 33 34 34 33 32 30 30 29 29 29 29 28 27 27 26 24 23 22 20 19 18 17 17 17 17 18 18 18 18 18 18 17 17 16 16 17 17 16 16 16 14 13 12 11 10 11 11 12 13
10 11 11 11 12 13 14 15 16 17 16 16 18 19 20 21 22 23 22 21 21 21 22 24 25 25 27 28 30 31 31 31 32 31 32 32 33 35 35 34 33 33 33 34 34 31 29 27 26 26 26 24 22 21 21 20 19 18 17 17 18 18 19 19 18 17 16 15 14 15 15 15 16 15 14 13 12 12 11 11 11 11 12 12 12
8 8 8 8 8 8 9 9 11 11 9 9 11 13 13 13 15 14 12 11 12 11 12 15 18 20 21 22 23 24 25 26 27 27 28 28 30 32 32 29 30 33 34 37 37 34 31 29 28 27 25 23 21 20 21 21 19 18 18 18 18 18 17 17 16 14 14 13 13 13 13 13 13 12 11 11 10 10 9 10 10 11 11 10 9
4 3 3 3 3 4 5 5 6 6 4 3 5 6 6 7 8 8 6 4 5 5 6 9 12 13 13 13 13 14 16 18 19 20 22 23 24 25 25 24 27 32 33 36 37 35 33 32 30 28 26 22 20 20 21 21 17 14 15 16 17 16 16 14 13 13 13 13 12 12 12 12 11 11 9 9 8 8 9 9 9 9 9 9 8
6 5 4 3 3 3 3 3 3 3 2 2 3 3 4 4 5 5 3 1 1 2 3 5 5 6 7 7 7 7 8 9 11 12 13 15 16 17 18 18 21 26 28 31 35 36 37 35 32 28 25 20 18 18 18 16 13 11 12 14 15 16 15 14 13 13 13 12 12 12 12 11 11 10 8 7 6 6 7 7 7 7 7 8 8
7 7 6 5 5 4 3 3 2 1 1 1 1 2 2 1 2 1 1 2 2 2 2 2 3 4 5 6 6 7 7 6 7 7 7 7 8 9 11 12 13 15 17 19 21 23 25 26 24 21 18 15 13 13 13 12 11 11 13 14 15 16 16 15 14 14 13 11 10 11 12 12 11 10 8 7 6 5 4 4 5 6 6 7 7
8 8 8 7 6 4 3 3 2 1 1 1 1 1 1 1 1 0 2 2 2 3 3 4 4 4 4 4 5 6 7 6 5 4 5 6 7 8 8 7 7 8 9 9 8 7 6 7 9 11 11 10 10 10 10 11 12 13 14 15 15 15 14 14 14 12 11 11 10 10 10 10 9 8 7 6 5 4 4 5 6 7 7 7 8
8 8 8 7 6 4 3 2 1 1 1 2 2 1 2 1 1 1 1 2 3 3 4 4 3 3 3 3 4 5 6 6 5 6 7 8 10 11 11 11 9 7 6 5 5 5 4 3 4 6 7 8 9 9 10 12 13 14 14 14 13 12 11 11 11 10 12 13 10 8 8 8 7 7 6 5 5 5 6 7 7 7 8 8 9
7 7 7 7 6 4 3 1 1 1 1 1 2 2 2 2 2 2 2 3 3 4 4 3 3 3 4 4 5 5 5 5 6 7 8 10 10 12 13 14 14 12 9 7 5 5 5 5 5 6 7 7 8 8 8 10 10 10 10 10 9 9 9 9 10 10 11 12 10 9 9 8 8 7 7 7 7 8 8 8 8 9 9 10 10
6 6 6 5 4 3 1 0 0 1 2 2 2 3 3 3 3 3 4 4 5 5 6 5 4 4 6 6 7 6 7 7 7 8 9 10 10 11 12 12 13 13 12 9 7 5 5 5 5 5 6 6 5 5 5 6 7 6 6 7 7 8 8 9 10 9 9 9 9 9 10 10 10 10 10 9 9 9 9 9 10 10 11 11 12
4 3 3 3 2 1 1 2 2 3 3 3 3 4 4 4 3 4 5 6 6 7 7 7 7 8 9 9 9 9 9 10 11 11 12 13 13 12 12 11 11 11 10 10 8 6 6 5 4 4 3 2 2 2 2 4 5 5 5 5 6 7 7 8 8 8 8 8 8 9 9 10 10 11 11 11 10 11 11 11 12 12 12 12 12
3 2 2 2 3 3 4 5 6 6 6 6 7 7 6 6 5 5 6 7 7 8 9 9 10 10 11 11 12 12 13 14 14 15 16 17 16 15 13 12 11 10 9 8 8 8 8 7 7 7 7 5 3 2 2 2 3 5 6 7 7 7 8 8 8 7 7 7 7 8 8 9 10 10 11 11 12 12 13 13 13 12 12 12 12
2 3 3 4 5 6 7 8 9 10 10 10 10 9 9 8 8 7 6 7 8 9 10 11 12 12 13 13 15 16 17 17 17 17 17 17 16 14 12 11 11 10 9 7 7 7 8 7 8 10 11 10 9 9 8 8 7 8 9 10 10 9 9 8 8 7 7 6 7 7 8 9 10 11 12 12 13 13 13 13 12 12 13 13 13
5 5 6 7 8 9 10 11 12 12 12 11 10 10 10 10 9 8 7 6 6 7 8 9 9 10 11 13 14 15 16 16 16 15 14 13 13 11 10 9 9 8 7 6 6 6 8 8 9 10 11 11 10 10 11 11 10 10 9 9 9 8 7 7 6 6 6 7 7 8 9 10 11 11 12 12 13 13 13 13 14 14 14 14 15
7 8 8 9 10 10 11 12 12 12 11 10 10 10 9 9 7 6 6 5 5 6 6 6 6 7 8 8 9 10 11 11 11 11 10 10 10 9 7 7 7 7 5 5 5 6 7 8 9 9 9 9 9 9 8 8 8 7 6 6 5 5 5 6 6 7 8 9 9 10 11 11 11 11 12 12 13 13 14 14 14 14 15 15 16
7 9 10 10 11 11 12 12 12 12 12 11 10 10 9 8 7 7 6 6 6 7 7 7 6 6 6 6 6 6 6 7 7 8 8 8 7 6 5 6 6 5 3 3 5 6 8 9 9 9 8 7 6 5 5 4 4 4 4 5 5 6 6 7 8 9 10 11 11 12 12 12 12 12 12 13 13 14 14 14 15 16 17 18 19
7 9 10 11 12 13 13 13 13 13 13 12 11 10 9 9 9 9 8 8 7 8 7 7 6 6 6 6 6 5 5 5 5 5 5 5 5 5 4 5 5 4 2 2 4 6 7 8 8 7 6 5 4 4 4 4 5 5 6 7 8 8 9 10 10 11 12 13 13 13 14 14 14 14 14 15 15 15 16 17 18 19 20 20 21
8 9 10 12 12 13 14 14 14 14 14 14 13 12 11 11 11 11 10 9 9 9 8 7 6 6 5 5 4 4 4 4 4 3 2 3 3 4 4 4 4 3 3 3 4 5 5 6 6 6 5 5 5 5 5 6 6 7 8 9 10 10 11 12 13 14 14 15 15 16 16 16 16 16 17 17 17 18 19 20 20 21 22 23 24
10 10 11 12 13 13 14 14 14 14 14 14 14 13 13 13 13 13 12 11 10 10 9 8 7 6 6 4 3 2 2 4 4 3 1 1 2 4 4 5 5 4 4 4 5 5 5 5 5 5 5 6 6 6 7 8 8 9 10 10 11 12 14 14 15 16 17 17 17 17 18 18 18 18 19 19 19 20 21 22 22 23 24 25 26
13 13 13 13 14 14 14 14 14 14 14 14 14 14 14 14 14 14 14 13 12 11 10 10 9 8 7 5 3 2 2 4 5 5 5 6 7 8 8 7 7 7 7 7 7 7 7 7 7 7 7 8 8 8 9 10 11 11 12 13 14 15 16 16 17 18 18 19 19 20 20 20 20 21 21 22 22 22 23 24 24 25 26 26 27
16 16 16 16 15 15 15 15 14 14 14 14 14 14 14 14 14 14 15 15 15 14 12 12 11 10 8 7 6 5 5 7 8 8 9 10 9 8 8 7 8 8 8 8 8 8 9 9 9 10 10 11 11 12 13 13 14 15 15 16 17 17 18 18 18 19 19 20 21 21 22 22 22 23 23 24 24 24 24 25 25 25 26 26 25
18 18 19 18 17 16 16 16 16 15 14 14 14 14 14 15 15 15 15 15 16 15 15 14 13 12 10 10 9 9 9 10 10 10 10 9 8 7 6 7 8 8 8 8 9 9 10 10 11 12 12 13 14 14 15 16 16 17 18 18 19 19 19 19 19 20 20 21 21 22 22 23 23 23 23 23 24 24 24 23 23 23 23 22 22
19 19 20 20 19 19 19 18 18 17 16 15 15 15 15 16 16 16 17 17 16 16 16 15 14 13 13 13 12 12 12 12 11 11 10 7 6 6 6 7 8 9 9 9 10 10 11 11 12 13 14 15 16 16 17 18 18 19 19 20 20 20 20 20 20 20 20 21 21 21 22 22 22 22 22 22 22 21 21 21 20 20 19 19 19
18 19 20 20 20 21 21 22 21 21 20 19 17 17 17 18 18 18 19 18 17 16 16 15 15 15 15 15 14 14 14 12 11 10 8 6 5 5 6 7 8 9 10 11 11 12 12 13 14 14 15 16 17 18 19 19 20 20 20 20 20 20 20 20 20 20 20 20 20 20 20 21 21 20 20 19 19 18 18 17 17 17 17 17 17
19 20 20 20 20 21 22 23 24 25 24 22 20 19 19 19 19 20 20 19 18 18 17 17 17 17 17 16 16 16 14 13 11 9 7 5 6 7 8 9 10 10 11 12 13 13 14 15 16 17 18 19 20 20 21 21 21 20 20 20 20 19 19 19 20 20 20 21 21 21 20 20 19 18 17 17 16 16 16 16 15 15 15 15 14
18 19 19 19 19 19 20 22 24 26 27 26 24 23 21 20 20 21 21 21 20 20 19 19 19 19 18 18 17 16 15 13 11 9 7 7 8 9 10 12 12 13 13 14 14 15 16 17 18 19 20 21 22 22 22 21 20 19 19 18 18 19 19 20 21 21 21 21 21 20 19 17 16 16 15 15 15 15 15 15 14 13 13 13 13
19 19 20 20 21 21 21 21 21 23 25 27 28 27 25 22 21 21 22 23 22 20 19 20 20 20 19 18 18 17 15 12 10 9 9 10 11 12 13 14 14 15 15 16 17 17 18 19 20 21 22 22 22 22 21 20 19 18 18 18 18 19 20 21 21 21 20 20 19 18 16 15 14 14 14 14 14 13 13 12 12 11 11 12 11
22 22 23 23 24 24 24 23 22 22 22 24 25 26 26 25 24 22 22 22 22 21 21 21 21 21 20 19 18 16 14 12 11 10 11 12 13 14 15 15 16 16 17 17 18 19 20 21 22 22 22 21 21 20 19 18 17 16 16 17 18 18 19 20 20 19 18 16 16 15 14 13 13 13 13 13 12 11 11 10 10 10 11 12 11
25 25 25 26 26 26 25 24 23 22 22 21 22 22 22 25 27 27 25 24 22 22 22 23 23 22 21 20 18 16 13 12 11 12 13 13 14 14 15 16 17 18 19 20 21 21 22 22 22 21 21 21 20 18 17 16 16 16 16 16 17 18 18 18 17 15 14 14 13 13 12 12 11 11 11 11 10 10 10 10 10 11 12 12 12
24 24 24 24 24 24 24 23 22 22 22 21 20 19 18 21 26 29 30 28 26 24 23 24 24 23 22 20 18 15 13 12 13 13 14 14 14 15 16 17 18 20 21 21 22 22 21 21 20 19 19 19 17 15 15 15 15 15 16 17 17 18 18 16 14 12 11 11 11 11 10 10 10 10 9 9 9 9 9 10 10 10 10 10 9
21 22 22 21 21 21 21 21 21 21 20 18 17 17 18 20 23 26 29 29 27 24 22 22 23 23 22 19 17 15 14 13 13 13 13 14 14 15 16 18 20 21 21 21 20 20 19 19 18 19 19 17 15 14 14 15 15 16 16 17 18 18 17 15 12 10 8 8 8 8 8 8 8 8 8 8 8 8 9 9 9 9 8 7 7
19 19 20 20 19 19 19 18 17 17 16 15 15 17 19 21 23 25 25 25 25 23 22 23 24 24 21 18 16 14 13 13 13 13 14 14 15 16 17 19 20 21 21 20 19 18 18 18 18 19 18 16 14 14 15 15 16 17 17 18 19 19 16 11 8 6 6 6 7 7 7 7 7 7 7 7 8 8 9 9 8 7 7 6 6
15 15 16 16 17 16 16 15 14 13 13 13 14 16 18 20 21 21 21 23 23 23 22 22 22 20 17 16 15 13 13 13 13 14 14 15 15 16 18 19 21 21 20 19 18 18 18 18 18 18 17 17 16 15 15 15 16 19 20 20 19 15 10 6 4 4 5 5 6 6 7 7 7 7 7 7 8 8 8 8 7 7 6 6 6
Wind_Direction
220 219 217 216 216 216 217 220 221 221 222 223 223 222 222 222 221 220 218 220 221 223 230 234 233 235 239 238 236 237 237 237 239 243 247 246 241 240 243 247 253 259 259 257 256 257 257 255 254 258 265 273 279 283 285 286 286 288 289 291 297 302 304 306 305 311 323 334 338 343 344 348 357 351 335 322 318 320 324 328 329 327 330 333 333
219 218 218 217 216 216 217 219 221 223 222 222 222 220 221 222 221 221 219 219 224 229 232 231 230 235 240 240 240 237 234 232 233 241 248 248 245 244 246 249 251 252 255 256 256 260 261 259 257 258 262 269 274 277 276 274 275 280 284 288 294 296 295 299 303 307 315 327 336 342 344 343 343 342 333 319 313 316 320 322 324 326 328 329 331
220 217 219 219 217 215 215 217 220 222 223 222 221 220 220 220 220 222 223 221 222 225 227 226 227 234 240 241 242 238 232 227 229 239 246 247 249 250 251 253 252 251 254 252 250 257 260 257 255 255 257 261 265 267 268 266 268 273 276 282 289 291 290 293 298 304 313 325 336 339 338 336 335 335 330 320 312 312 316 321 325 327 328 330 333
219 218 218 219 218 216 214 216 217 220 223 224 223 222 221 222 224 225 225 223 219 218 222 226 227 232 239 242 241 236 229 229 233 239 243 248 252 252 253 256 256 257 258 254 252 259 261 258 256 256 257 260 263 265 264 263 266 272 274 274 276 279 284 287 293 305 315 324 330 332 332 331 333 333 328 321 315 313 319 327 331 331 333 336 338
219 218 217 218 219 217 214 215 216 218 221 223 224 223 221 222 224 224 223 219 218 219 226 231 233 235 240 243 242 240 239 243 248 250 251 255 256 255 256 257 257 258 257 254 254 258 260 260 257 258 260 262 266 268 267 266 268 271 273 269 263 265 276 287 298 308 316 322 323 325 327 327 329 330 325 321 320 322 329 336 337 336 339 344 344
218 216 216 218 219 217 216 216 217 218 220 222 222 220 216 217 222 225 224 222 221 225 230 234 235 238 243 245 246 251 254 256 261 265 266 267 264 261 260 259 255 253 254 257 260 262 264 266 266 266 267 268 272 274 273 272 272 270 265 258 252 254 267 285 300 307 313 319 321 321 322 323 324 325 324 323 326 331 334 335 338 343 348 350 347
217 216 215 216 217 218 218 218 219 220 221 223 224 220 216 217 223 225 226 227 230 234 238 240 240 240 243 247 250 256 260 262 266 271 272 273 271 267 265 263 258 254 255 259 265 268 268 269 272 273 273 274 276 280 280 277 274 268 259 254 254 257 266 279 291 300 309 315 317 316 315 316 319 321 325 328 329 332 333 334 339 347 356 0 351
219 219 218 216 216 217 219 221 222 221 223 226 227 224 222 221 223 223 223 226 231 236 240 244 245 244 244 246 250 256 261 265 268 271 272 273 272 270 269 267 263 260 259 261 267 271 270 270 273 273 273 274 275 277 278 276 272 265 257 256 257 258 265 275 286 296 303 308 311 310 308 310 314 317 323 329 330 331 335 338 340 341 353 8 355
219 220 220 218 215 212 214 219 221 220 223 227 229 228 227 226 226 227 227 229 235 239 243 246 248 247 245 246 250 255 259 262 266 269 270 271 273 272 271 270 268 267 264 263 266 269 269 272 275 273 271 269 269 271 271 267 263 260 256 257 260 262 265 271 281 291 297 301 305 304 303 307 311 315 323 330 331 332 334 336 336 335 344 3 359
219 219 216 214 211 209 211 215 219 221 224 227 228 229 230 229 231 236 238 242 246 249 251 253 253 251 249 247 251 254 256 258 261 265 267 268 271 272 269 268 268 268 267 264 264 265 269 273 274 274 272 267 266 269 270 266 261 258 256 257 260 264 267 270 276 285 291 296 300 299 300 306 310 315 323 327 328 330 331 332 332 331 337 350 1
218 217 212 207 207 211 216 217 220 224 227 228 229 230 230 229 231 238 244 248 250 251 252 254 254 254 251 250 253 256 256 254 255 259 262 265 267 270 270 269 267 266 265 262 260 262 268 273 276 278 276 272 271 272 274 273 268 265 263 262 264 265 266 268 273 280 286 291 293 294 298 305 310 315 320 322 323 326 329 329 328 328 334 343 356
215 214 209 208 213 219 222 221 224 229 231 231 231 232 234 234 234 239 244 247 249 250 250 250 251 251 250 250 253 255 256 254 253 254 256 259 263 266 267 267 266 264 261 258 258 260 263 269 275 279 277 274 274 276 278 277 274 274 272 272 272 269 264 265 269 275 281 286 289 292 298 305 310 315 316 318 321 323 326 328 322 320 329 337 347
214 213 211 213 220 224 224 224 228 234 235 234 234 235 237 238 239 240 242 244 247 250 251 252 251 251 250 250 250 251 253 254 254 254 255 257 260 263 263 262 262 261 259 257 257 257 258 261 267 273 274 275 276 277 277 275 274 277 277 274 270 265 261 262 266 271 277 282 287 294 302 306 309 313 314 315 319 320 322 325 317 311 320 326 333
212 214 213 214 217 220 223 225 229 233 234 234 236 238 239 240 241 241 241 243 245 248 252 254 255 255 253 252 251 251 251 251 252 253 254 255 256 257 258 259 259 258 256 257 257 257 256 257 262 266 270 274 277 277 276 274 273 273 274 272 268 261 258 259 263 269 276 281 287 295 301 303 306 310 310 311 316 317 317 320 317 310 312 314 320
211 213 213 213 213 218 223 226 228 230 233 236 239 241 242 242 243 243 243 244 246 248 251 254 257 260 259 257 256 255 254 254 254 253 254 254 254 253 256 258 260 259 257 256 256 256 255 255 257 262 267 272 277 279 277 273 269 268 268 267 265 261 258 259 262 268 274 278 285 292 297 301 304 306 306 308 312 313 313 317 316 311 308 308 314
209 211 213 214 217 222 225 228 231 233 237 240 241 242 244 245 246 245 244 244 245 246 248 251 255 260 262 261 260 260 260 259 259 259 257 256 253 253 255 258 259 260 260 258 257 256 255 255 257 260 264 269 275 278 276 270 265 264 265 264 262 260 258 259 261 266 271 275 282 289 294 298 300 301 303 306 309 310 312 314 312 308 305 305 309
203 204 208 212 218 223 227 231 234 238 241 243 243 244 246 247 247 246 244 244 247 250 253 257 260 261 263 263 263 265 265 264 263 263 261 257 253 252 254 257 257 258 259 259 258 255 254 254 255 258 261 266 272 275 271 265 262 262 261 261 259 257 257 260 263 266 271 276 282 287 291 293 296 297 299 301 302 304 306 304 299 297 299 300 307
204 206 210 215 221 227 231 234 238 241 246 249 249 249 250 251 252 252 252 252 254 258 262 265 266 265 264 264 263 264 266 266 265 264 262 259 255 253 254 256 255 255 256 255 254 252 251 251 252 254 258 262 268 270 267 263 261 260 258 257 256 256 257 261 264 268 273 277 281 285 288 289 291 292 291 290 291 291 286 283 284 291 298 303 311
206 211 217 222 227 232 236 240 244 248 252 257 260 260 259 260 262 265 266 265 264 264 265 266 267 266 264 263 262 262 263 264 264 264 264 263 261 260 260 259 256 254 253 252 250 247 245 245 248 252 256 259 263 266 265 262 259 260 259 257 256 256 257 259 263 268 272 275 276 278 280 282 282 282 280 279 279 278 276 277 283 292 303 310 316
205 210 219 226 231 237 242 245 250 255 257 259 263 265 265 266 269 272 275 277 275 271 269 268 268 266 264 263 261 260 261 263 266 269 269 268 268 266 263 260 257 255 252 251 251 250 248 248 250 252 253 255 259 264 266 263 259 259 260 258 257 257 258 260 263 265 267 268 267 269 269 270 271 271 269 267 268 269 273 282 291 300 309 316 322
199 204 215 225 232 241 248 252 256 264 265 257 257 263 267 270 274 280 288 291 286 278 270 265 262 261 262 263 262 262 265 267 271 273 274 274 273 271 269 265 260 256 253 250 250 252 252 251 250 249 250 253 258 266 270 267 260 256 255 254 254 254 256 257 259 259 260 261 262 264 265 265 264 260 255 254 259 267 279 291 300 306 313 321 331
151 159 179 201 213 230 246 255 261 273 287 278 264 273 286 290 294 305 320 314 291 277 260 252 253 259 267 274 276 276 276 276 277 277 277 277 276 275 277 270 254 247 247 247 248 248 248 247 245 242 241 245 255 265 270 267 260 254 251 250 249 249 250 252 253 253 252 254 258 260 258 255 248 240 236 242 256 275 289 298 306 314 323 336 349
120 128 137 146 154 180 211 226 238 260 286 291 285 294 302 308 316 323 335 337 247 247 241 246 265 290 305 312 311 304 297 294 293 290 288 290 287 282 281 271 251 240 236 235 237 238 235 234 236 235 233 236 246 257 263 261 253 248 247 246 246 247 249 251 251 250 252 254 251 244 237 231 225 220 222 233 255 280 290 295 307 322 333 345 353
128 131 132 136 141 151 164 167 172 187 246 283 307 329 328 339 352 323 256 172 190 229 251 277 308 322 326 331 331 324 321 321 318 316 316 319 315 300 288 277 263 250 239 234 236 234 225 216 216 223 230 234 237 241 247 247 243 242 242 243 246 248 251 253 254 254 253 242 223 213 211 210 210 210 215 229 249 274 287 293 308 320 327 334 340
127 132 137 142 148 162 171 167 166 187 275 285 308 13 58 82 72 277 237 226 252 277 292 305 316 318 322 338 342 335 336 341 338 336 340 343 341 328 311 293 274 264 260 261 270 274 245 206 199 211 224 229 228 229 234 238 240 243 245 247 250 251 251 252 251 244 226 201 189 192 195 197 202 209 221 241 265 288 299 302 308 313 315 318 322
121 130 139 144 154 177 193 187 187 269 308 310 324 12 34 25 352 306 272 270 280 291 299 307 315 310 316 344 356 348 348 346 332 322 325 332 337 335 329 322 313 299 284 278 285 294 290 260 220 217 226 236 238 238 239 240 240 241 244 247 248 248 246 242 232 214 197 192 194 200 199 199 208 220 235 254 267 275 281 287 292 296 298 301 303
123 132 141 147 157 173 189 191 203 269 314 325 329 336 337 326 308 298 293 290 292 298 307 319 320 298 298 320 337 337 334 328 323 322 320 320 324 326 327 325 322 318 310 296 285 281 275 263 254 258 266 264 258 253 244 236 232 232 234 236 238 242 243 235 222 209 202 203 208 211 211 213 217 223 233 245 255 265 273 279 285 287 289 292 294
125 134 137 138 144 153 154 107 335 310 311 314 317 316 314 306 294 284 280 277 276 281 291 301 297 283 284 294 303 307 307 306 312 319 319 317 314 314 316 316 316 316 313 306 300 297 289 275 265 273 283 279 272 265 246 231 225 224 223 219 219 227 231 226 223 223 219 217 217 216 214 215 218 226 237 248 259 268 272 277 281 282 282 285 288
105 116 107 86 75 66 41 19 1 342 326 316 311 308 303 296 286 279 277 274 272 272 275 277 275 270 272 279 282 285 289 296 301 305 308 310 308 305 305 304 303 301 300 296 291 289 285 269 237 229 256 279 285 267 229 219 217 215 212 209 207 213 219 220 223 225 221 219 219 216 213 217 225 236 247 255 262 268 270 274 278 278 280 283 285
63 58 31 15 4 356 353 347 342 338 330 320 314 310 305 298 289 282 274 269 268 269 269 268 269 268 268 272 276 280 284 289 293 297 301 303 302 300 297 293 289 287 284 274 260 255 259 250 223 209 206 207 215 218 204 202 205 203 209 217 217 212 210 208 206 206 206 209 215 217 222 231 240 249 258 264 269 272 273 275 276 277 280 284 288
10 356 339 329 323 325 324 321 321 324 323 317 311 307 305 304 303 300 289 276 270 270 269 267 266 266 267 271 276 281 285 289 294 298 300 299 297 297 294 286 279 278 278 268 251 245 246 242 230 223 221 224 229 230 229 230 225 211 201 201 200 196 196 199 199 202 210 220 230 238 248 255 261 267 271 274 276 277 277 278 279 281 285 289 292
326 327 328 325 322 319 316 314 316 318 319 317 309 303 300 301 301 299 297 290 279 271 269 268 268 269 271 274 278 282 288 294 299 302 301 297 294 295 295 288 280 278 274 263 249 241 235 228 223 220 222 224 220 212 209 210 209 201 193 193 195 197 203 212 219 228 240 252 261 270 276 279 281 282 281 281 281 280 280 282 285 287 290 293 295
307 310 313 316 316 314 315 318 319 319 320 318 311 305 301 297 292 285 283 284 283 279 275 275 277 281 282 283 286 290 294 300 305 307 306 303 301 300 296 288 284 283 277 263 245 222 202 193 191 189 193 197 192 186 187 191 193 198 205 215 226 234 243 254 263 270 278 284 288 291 293 293 292 291 289 288 287 285 285 287 288 289 292 293 295
293 296 299 303 305 306 310 315 318 318 317 314 309 305 297 285 274 266 262 266 273 279 282 285 289 296 304 306 308 309 307 307 311 313 313 311 310 307 296 283 280 281 273 249 223 200 185 181 183 182 182 185 188 193 205 215 227 245 259 268 277 282 285 288 290 292 295 297 299 300 300 298 296 294 292 290 290 289 290 290 291 293 294 296 298
303 301 299 299 300 302 303 306 309 310 308 304 300 297 290 278 269 264 261 261 263 269 276 283 289 300 311 317 319 323 322 317 316 321 324 326 333 336 314 284 271 264 246 207 194 190 187 187 191 194 197 206 218 237 257 268 278 287 292 296 298 298 298 299 300 301 303 304 305 305 304 302 300 298 296 294 293 292 292 293 294 295 296 298 299
307 307 305 302 299 298 299 300 302 304 302 296 290 285 280 275 271 267 265 262 261 264 267 270 277 289 300 307 315 326 324 314 309 316 334 345 356 356 331 294 270 251 229 211 202 202 205 206 207 213 224 237 251 265 277 286 291 294 296 298 298 299 300 301 303 304 305 306 306 305 304 302 300 298 297 296 296 296 296 296 297 298 298 299 300
299 302 305 304 300 297 297 298 298 295 291 289 287 284 280 274 268 264 265 263 259 261 262 262 267 280 289 293 304 320 308 296 290 282 279 332 331 320 308 293 279 267 256 245 237 236 240 242 242 247 255 264 272 279 284 289 292 294 296 297 297 298 299 301 302 304 304 304 304 303 301 300 298 298 297 297 297 297 297 297 298 298 299 301 301
291 295 299 301 302 301 300 300 296 286 279 280 281 281 281 277 268 261 260 261 258 257 258 260 265 275 282 281 277 266 268 279 280 276 282 300 309 309 304 293 281 273 269 265 261 261 265 268 272 276 280 285 291 294 296 299 300 301 302 303 303 304 305 305 305 304 304 303 302 301 300 299 299 298 297 296 296 296 296 297 298 298 299 300 301
283 286 289 292 294 295 298 299 293 282 274 273 274 274 276 276 271 262 258 259 259 258 258 259 264 269 272 269 260 255 261 272 280 287 296 304 310 310 303 293 284 278 275 275 274 277 281 284 288 291 294 297 300 302 303 305 307 308 308 308 308 308 308 307 306 304 303 302 301 300 299 299 298 298 298 298 299 299 299 299 300 301 301 302 303
277 280 284 286 286 286 289 292 289 282 274 270 271 271 271 271 270 264 259 258 258 258 258 259 261 263 263 261 258 259 266 276 288 301 311 318 320 314 299 287 281 279 279 280 281 283 286 290 293 296 298 300 302 304 305 306 307 308 308 308 307 307 307 306 305 303 302 301 299 298 298 298 297 298 299 299 300 301 302 302 303 303 304 305 306
278 278 279 280 280 279 280 282 283 281 277 272 271 272 271 267 264 260 257 255 254 255 256 255 254 254 255 256 259 264 271 282 296 308 316 318 310 299 291 283 279 279 281 283 286 288 291 293 295 297 300 302 303 304 305 306 306 306 306 306 306 306 306 305 304 303 301 299 298 297 297 298 299 300 300 300 301 302 302 303 304 304 305 306 308
281 280 279 278 277 276 276 276 276 275 273 270 269 270 270 267 261 255 254 254 253 253 253 250 247 247 248 251 257 264 271 281 294 303 309 310 302 294 289 286 284 285 286 288 290 292 294 296 298 300 302 303 304 305 306 306 306 306 306 306 306 306 305 305 305 304 302 300 299 300 301 302 302 302 301 301 302 303 304 304 305 306 307 308 309
287 286 286 285 281 278 276 275 273 270 268 266 265 265 267 267 262 256 253 253 252 252 252 249 247 245 245 247 253 261 268 278 286 290 291 294 297 298 296 295 294 293 293 293 295 297 298 299 301 302 304 305 306 307 308 308 308 307 306 305 305 305 305 305 304 303 301 301 303 305 307 307 307 307 307 307 308 309 310 310 312 312 311 312 313
293 292 292 292 290 288 284 281 278 274 270 266 263 261 262 265 263 257 253 252 253 253 253 251 247 244 242 244 250 258 265 272 278 280 282 288 295 298 297 298 299 299 299 301 301 301 302 303 303 304 306 307 308 309 309 309 308 306 304 304 303 303 303 303 301 300 301 304 307 310 311 312 312 311 312 312 313 314 315 315 317 318 318 319 320
294 294 294 295 296 295 292 290 288 283 276 271 267 262 259 258 258 256 253 253 253 252 249 246 242 241 241 244 249 254 260 266 271 275 284 292 298 298 298 298 299 299 299 301 301 301 302 303 305 306 307 308 308 309 308 307 304 302 301 301 301 301 302 302 302 304 308 311 313 314 316 317 316 314 314 315 315 317 319 320 322 324 324 323 324
291 292 292 292 293 295 294 292 289 286 282 279 275 269 260 253 250 249 249 251 253 251 245 241 239 240 241 244 247 249 253 259 266 275 284 292 297 300 301 300 300 299 298 297 298 299 301 303 305 307 308 308 309 309 307 305 303 302 302 302 302 303 303 303 305 309 312 313 314 315 318 320 319 317 317 319 321 323 326 327 327 327 327 325 324
289 290 290 289 290 290 289 286 283 279 277 276 275 272 264 255 248 246 245 247 249 247 242 238 239 240 240 241 243 244 248 256 265 275 283 290 295 299 301 302 302 301 301 301 301 302 303 305 306 307 308 310 312 310 307 305 305 305 304 304 303 301 301 303 307 312 315 315 316 317 319 319 319 320 321 325 327 329 330 329 327 327 325 324 324
286 287 286 286 286 286 285 284 281 277 274 273 272 272 270 260 251 246 244 244 244 241 237 236 237 237 236 237 238 240 247 257 265 273 281 287 292 296 300 302 303 303 303 303 303 304 305 306 307 310 312 314 312 308 304 303 303 303 304 305 304 304 306 311 315 318 317 315 316 317 317 318 321 323 325 328 329 330 330 329 328 326 323 322 324
281 282 282 282 283 283 285 286 284 279 277 275 274 273 273 268 258 250 245 242 239 236 233 234 235 234 232 233 235 238 245 256 265 273 279 283 288 293 297 301 303 303 304 304 305 306 307 308 309 311 313 311 309 306 303 302 302 304 306 307 307 309 315 320 322 320 318 317 317 319 321 323 324 325 327 328 328 328 329 329 330 331 331 332 335
283 284 285 283 281 280 282 283 282 280 279 279 278 276 273 266 257 248 240 237 236 235 233 231 228 227 229 233 235 239 249 260 268 274 278 280 285 291 296 300 303 303 303 304 304 305 307 307 306 306 306 305 304 302 300 300 302 303 303 303 305 310 316 322 321 319 320 322 323 325 326 327 327 328 330 331 329 328 329 328 327 330 335 339 343
290 289 289 287 286 285 287 287 286 285 284 282 281 279 274 266 257 248 239 234 230 225 221 220 219 221 229 238 243 249 258 265 270 275 278 280 285 291 295 299 302 302 300 300 302 303 303 302 300 299 300 301 298 293 291 291 293 293 294 299 304 310 317 321 318 318 323 325 326 327 326 324 324 327 328 330 330 330 328 324 321 322 327 332 338
Height
1568 1570 1571 1573 1574 1576 1577 1578 1580 1581 1582 1583 1583 1584 1585 1586 1587 1588 1588 1589 1589 1590 1590 1590 1591 1591 1591 1592 1592 1593 1593 1593 1594 1594 1594 1594 1594 1595 1595 1595 1595 1595 1595 1595 1595 1595 1595 1595 1596 1596 1596 1596 1596 1596 1596 1596 1596 1596 1596 1596 1595 1595 1594 1593 1592 1591 1591 1591 1590 1590 1589 1588 1587 1586 1585 1584 1583 1582 1582 1581 1580 1578 1577 1575 1574
1567 1569 1570 1572 1573 1575 1576 1578 1579 1580 1581 1582 1583 1583 1585 1585 1586 1587 1587 1588 1589 1589 1589 1590 1590 1590 1591 1591 1592 1592 1592 1593 1593 1593 1593 1594 1594 1594 1594 1594 1594 1594 1594 1595 1595 1595 1595 1595 1595 1595 1595 1595 1594 1594 1594 1594 1594 1594 1594 1594 1594 1594 1593 1592 1592 1591 1590 1590 1590 1589 1588 1587 1586 1585 1584 1583 1582 1582 1581 1580 1579 1578 1576 1574 1572
1566 1568 1570 1571 1573 1574 1576 1577 1578 1580 1580 1581 1582 1583 1584 1585 1586 1586 1587 1587 1588 1588 1589 1589 1589 1590 1590 1591 1591 1591 1592 1592 1592 1592 1592 1593 1593 1593 1593 1593 1593 1594 1594 1594 1594 1594 1594 1593 1593 1593 1593 1593 1593 1593 1593 1593 1593 1593 1593 1593 1593 1593 1592 1591 1591 1590 1589 1589 1589 1588 1587 1586 1586 1585 1584 1583 1582 1581 1580 1580 1578 1577 1575 1573 1571
1565 1567 1568 1570 1572 1573 1574 1576 1577 1578 1579 1580 1581 1582 1583 1583 1584 1585 1585 1586 1587 1587 1588 1588 1589 1589 1589 1590 1590 1590 1591 1591 1591 1592 1592 1592 1592 1592 1592 1592 1592 1593 1593 1593 1593 1593 1593 1592 1592 1592 1592 1592 1592 1592 1592 1592 1592 1592 1592 1592 1591 1591 1591 1591 1590 1590 1589 1588 1588 1587 1586 1585 1585 1584 1583 1582 1581 1581 1580 1579 1578 1576 1574 1572 1570
1564 1565 1567 1569 1570 1571 1573 1574 1575 1576 1577 1579 1580 1581 1582 1582 1583 1584 1584 1585 1586 1586 1587 1587 1587 1588 1588 1589 1589 1590 1590 1590 1590 1591 1591 1591 1591 1591 1591 1591 1591 1591 1591 1591 1591 1591 1591 1591 1591 1591 1591 1591 1590 1590 1590 1590 1591 1591 1591 1590 1590 1590 1590 1590 1589 1589 1588 1587 1586 1586 1585 1585 1584 1583 1582 1581 1580 1580 1579 1578 1577 1575 1573 1571 1569
1562 1563 1565 1566 1568 1569 1571 1572 1573 1574 1575 1576 1578 1579 1580 1581 1582 1582 1583 1584 1585 1585 1586 1586 1586 1586 1587 1587 1588 1588 1589 1589 1589 1589 1590 1590 1590 1590 1590 1590 1590 1590 1590 1590 1590 1590 1590 1590 1590 1590 1590 1589 1589 1589 1589 1589 1589 1589 1589 1589 1589 1589 1589 1589 1588 1588 1588 1587 1586 1585 1584 1584 1583 1583 1582 1580 1579 1578 1577 1576 1575 1574 1572 1570 1568
1560 1562 1563 1564 1566 1567 1569 1570 1571 1572 1573 1575 1576 1578 1579 1580 1581 1581 1582 1583 1584 1584 1584 1585 1585 1585 1586 1586 1586 1587 1587 1587 1588 1588 1588 1588 1588 1588 1589 1589 1589 1588 1589 1589 1589 1589 1589 1589 1589 1588 1588 1588 1588 1588 1588 1588 1588 1588 1588 1588 1588 1587 1587 1587 1587 1587 1586 1586 1585 1584 1583 1583 1582 1581 1581 1580 1578 1577 1575 1574 1573 1572 1571 1569 1567
1560 1561 1562 1563 1564 1566 1567 1569 1570 1572 1573 1574 1575 1576 1577 1578 1579 1580 1581 1581 1582 1582 1582 1583 1584 1584 1584 1584 1585 1585 1585 1586 1586 1586 1587 1587 1587 1587 1587 1587 1587 1587 1587 1587 1587 1587 1587 1587 1587 1587 1587 1586 1586 1586 1586 1586 1586 1586 1586 1586 1586 1586 1586 1586 1586 1586 1585 1585 1584 1583 1582 1582 1581 1580 1580 1579 1578 1576 1575 1573 1571 1570 1570 1568 1566
1558 1559 1561 1563 1564 1565 1566 1567 1569 1570 1571 1572 1573 1574 1575 1576 1577 1578 1579 1579 1580 1580 1581 1581 1582 1582 1582 1582 1583 1583 1583 1584 1584 1585 1585 1585 1585 1585 1585 1585 1585 1585 1586 1586 1586 1586 1586 1586 1585 1585 1585 1585 1585 1585 1584 1584 1584 1584 1585 1585 1585 1585 1585 1585 1585 1584 1584 1583 1583 1582 1582 1581 1580 1579 1579 1578 1576 1575 1574 1573 1571 1570 1569 1568 1567
1556 1557 1559 1561 1563 1564 1565 1566 1567 1568 1569 1571 1572 1573 1573 1574 1575 1576 1577 1577 1578 1578 1579 1579 1580 1580 1580 1580 1581 1581 1581 1582 1583 1583 1584 1584 1584 1584 1584 1584 1583 1583 1584 1584 1584 1584 1584 1584 1584 1584 1584 1583 1583 1583 1583 1583 1583 1583 1583 1583 1583 1583 1583 1583 1583 1583 1583 1582 1582 1581 1580 1580 1579 1578 1578 1576 1575 1574 1573 1572 1571 1569 1568 1568 1567
1554 1556 1557 1559 1561 1562 1563 1564 1565 1567 1568 1569 1570 1571 1572 1573 1573 1574 1575 1575 1576 1576 1577 1577 1577 1578 1578 1578 1579 1579 1579 1580 1580 1581 1582 1582 1582 1582 1582 1582 1582 1581 1582 1582 1582 1582 1582 1583 1583 1583 1582 1582 1582 1582 1582 1582 1582 1582 1582 1582 1582 1582 1582 1582 1582 1582 1581 1581 1581 1580 1579 1579 1579 1578 1577 1575 1574 1574 1573 1571 1570 1569 1568 1567 1566
1553 1555 1556 1557 1559 1560 1561 1562 1564 1565 1566 1567 1568 1569 1570 1570 1571 1572 1572 1573 1573 1573 1574 1575 1575 1575 1576 1576 1576 1577 1577 1578 1578 1579 1579 1580 1580 1580 1581 1581 1580 1580 1580 1580 1580 1580 1581 1581 1581 1581 1581 1581 1581 1581 1580 1580 1580 1580 1580 1580 1580 1580 1580 1580 1580 1580 1580 1579 1579 1579 1578 1578 1577 1577 1575 1574 1573 1573 1572 1571 1570 1569 1568 1566 1566
1551 1553 1555 1556 1557 1558 1560 1560 1562 1563 1564 1565 1566 1567 1567 1568 1569 1569 1569 1570 1570 1570 1571 1572 1572 1573 1573 1574 1574 1574 1575 1575 1576 1577 1577 1578 1578 1578 1579 1579 1578 1578 1578 1578 1578 1578 1578 1579 1579 1579 1580 1579 1579 1579 1579 1579 1578 1578 1578 1578 1578 1578 1578 1578 1578 1578 1578 1578 1578 1578 1577 1576 1576 1575 1574 1573 1572 1571 1571 1570 1569 1568 1567 1566 1565
1550 1552 1553 1554 1555 1556 1558 1559 1560 1561 1562 1563 1564 1564 1565 1565 1566 1566 1566 1567 1567 1567 1568 1569 1569 1570 1571 1571 1572 1572 1573 1573 1574 1574 1575 1575 1576 1576 1576 1576 1576 1576 1576 1576 1576 1576 1576 1577 1577 1577 1577 1577 1577 1577 1577 1577 1576 1576 1576 1576 1576 1576 1576 1576 1577 1577 1577 1576 1576 1576 1575 1575 1574 1574 1573 1572 1571 1570 1569 1568 1568 1568 1567 1566 1565
1549 1550 1552 1553 1554 1555 1556 1557 1558 1559 1560 1561 1562 1562 1563 1563 1564 1564 1564 1564 1564 1565 1565 1566 1566 1567 1568 1569 1570 1570 1570 1571 1571 1571 1572 1572 1572 1572 1572 1573 1573 1573 1573 1573 1573 1574 1574 1574 1574 1574 1575 1575 1575 1575 1575 1574 1574 1574 1574 1574 1574 1574 1574 1574 1575 1575 1575 1575 1575 1574 1574 1573 1572 1572 1571 1570 1569 1569 1568 1567 1566 1566 1565 1565 1564
1547 1548 1550 1551 1552 1553 1554 1555 1556 1557 1557 1558 1559 1560 1561 1561 1562 1562 1561 1561 1560 1560 1560 1561 1563 1564 1565 1566 1567 1568 1568 1568 1568 1569 1569 1569 1569 1569 1569 1569 1570 1570 1570 1571 1571 1571 1571 1571 1571 1572 1572 1572 1573 1573 1572 1572 1572 1572 1572 1572 1572 1572 1572 1572 1573 1573 1573 1573 1573 1573 1572 1571 1571 1570 1569 1568 1568 1567 1566 1565 1565 1564 1564 1564 1564
1544 1546 1548 1549 1550 1551 1552 1553 1553 1554 1555 1555 1556 1557 1558 1559 1559 1558 1557 1556 1556 1555 1557 1559 1561 1562 1562 1563 1564 1564 1565 1565 1565 1565 1566 1566 1566 1565 1565 1565 1565 1566 1567 1568 1568 1568 1568 1568 1568 1569 1569 1569 1570 1570 1570 1570 1569 1569 1569 1569 1570 1570 1570 1570 1570 1571 1571 1571 1571 1570 1570 1569 1569 1569 1567 1566 1566 1565 1565 1564 1563 1563 1563 1562 1562
1544 1545 1546 1548 1549 1549 1550 1551 1551 1552 1553 1553 1553 1555 1555 1556 1556 1556 1556 1556 1555 1555 1556 1558 1559 1559 1560 1561 1561 1561 1561 1561 1561 1561 1561 1561 1562 1562 1562 1562 1562 1563 1563 1564 1564 1564 1564 1564 1565 1566 1566 1566 1567 1567 1567 1567 1567 1567 1567 1567 1567 1568 1568 1568 1568 1568 1568 1568 1568 1568 1568 1567 1567 1567 1566 1565 1564 1564 1563 1563 1562 1561 1561 1560 1560
1544 1545 1546 1546 1547 1548 1548 1549 1550 1551 1551 1552 1552 1553 1554 1554 1554 1554 1554 1554 1554 1554 1555 1556 1556 1557 1557 1557 1557 1557 1557 1557 1557 1557 1557 1557 1557 1558 1558 1558 1559 1559 1560 1560 1560 1561 1560 1560 1561 1562 1563 1563 1564 1564 1564 1565 1565 1564 1564 1565 1565 1565 1565 1565 1566 1566 1566 1566 1566 1566 1565 1565 1565 1565 1565 1564 1563 1563 1562 1561 1561 1560 1560 1559 1558
1543 1544 1544 1545 1545 1546 1547 1547 1548 1549 1550 1551 1552 1552 1552 1552 1552 1551 1551 1551 1552 1553 1554 1553 1553 1553 1554 1554 1553 1554 1553 1553 1553 1553 1553 1554 1554 1553 1553 1553 1554 1554 1555 1555 1556 1557 1557 1558 1559 1560 1560 1561 1561 1561 1562 1562 1562 1562 1562 1562 1562 1562 1562 1563 1563 1563 1563 1563 1563 1563 1563 1563 1563 1563 1563 1563 1562 1561 1561 1560 1560 1559 1559 1558 1557
1541 1542 1543 1543 1544 1545 1545 1546 1547 1547 1548 1550 1551 1551 1551 1550 1550 1549 1549 1550 1550 1550 1551 1551 1550 1550 1551 1551 1550 1551 1550 1550 1550 1550 1550 1550 1550 1549 1548 1549 1550 1550 1550 1551 1551 1552 1554 1555 1556 1557 1557 1558 1559 1559 1559 1559 1559 1559 1559 1559 1559 1560 1560 1560 1560 1560 1561 1560 1561 1561 1561 1561 1562 1562 1562 1561 1561 1560 1560 1559 1559 1558 1558 1557 1556
1540 1541 1542 1542 1543 1544 1545 1546 1547 1548 1549 1550 1550 1550 1550 1549 1548 1548 1548 1549 1549 1549 1550 1550 1549 1549 1550 1550 1549 1549 1548 1548 1548 1548 1547 1547 1547 1546 1546 1547 1547 1546 1546 1547 1547 1548 1549 1550 1551 1552 1553 1554 1556 1556 1556 1557 1557 1557 1556 1556 1556 1557 1557 1558 1558 1558 1558 1558 1558 1558 1558 1559 1560 1560 1560 1560 1559 1559 1559 1559 1558 1557 1557 1556 1556
1540 1541 1542 1542 1543 1544 1545 1546 1547 1548 1549 1550 1550 1550 1550 1549 1548 1547 1547 1548 1549 1549 1550 1550 1550 1550 1549 1549 1548 1548 1547 1547 1547 1547 1546 1546 1545 1545 1545 1545 1544 1544 1544 1544 1543 1543 1543 1544 1545 1547 1548 1550 1552 1553 1554 1554 1554 1554 1554 1553 1553 1554 1554 1555 1556 1556 1556 1556 1556 1556 1556 1557 1558 1558 1558 1558 1558 1558 1558 1557 1557 1557 1556 1556 1555
1541 1542 1542 1543 1544 1545 1547 1548 1548 1549 1550 1550 1550 1550 1550 1549 1549 1548 1548 1548 1549 1550 1550 1550 1550 1550 1549 1549 1548 1547 1547 1547 1547 1547 1546 1546 1545 1545 1544 1544 1543 1543 1543 1542 1541 1539 1538 1538 1541 1544 1546 1547 1549 1550 1551 1551 1551 1552 1551 1551 1551 1551 1552 1553 1554 1554 1554 1554 1554 1554 1554 1555 1556 1556 1556 1556 1557 1557 1557 1557 1556 1556 1556 1556 1555
1543 1543 1544 1545 1546 1547 1548 1549 1549 1550 1551 1551 1551 1551 1551 1550 1550 1549 1549 1549 1549 1550 1551 1551 1551 1550 1550 1549 1549 1548 1547 1547 1548 1547 1547 1547 1546 1545 1544 1544 1543 1543 1543 1542 1541 1539 1538 1538 1540 1543 1545 1546 1547 1548 1549 1549 1549 1549 1549 1549 1549 1550 1550 1551 1551 1552 1552 1552 1552 1553 1553 1554 1555 1555 1556 1556 1556 1556 1556 1556 1556 1555 1555 1555 1554
1545 1545 1546 1547 1548 1548 1549 1549 1550 1551 1551 1551 1551 1552 1552 1551 1551 1551 1550 1550 1550 1551 1551 1551 1551 1551 1550 1550 1549 1549 1548 1548 1548 1548 1548 1547 1547 1546 1545 1545 1544 1543 1543 1542 1541 1540 1540 1540 1541 1543 1544 1545 1546 1547 1547 1547 1547 1548 1548 1548 1548 1549 1549 1549 1549 1550 1550 1551 1551 1552 1554 1554 1555 1555 1555 1555 1555 1555 1555 1555 1555 1555 1554 1554 1553
1547 1547 1548 1549 1549 1550 1550 1551 1551 1552 1552 1552 1552 1552 1552 1552 1552 1552 1552 1551 1551 1551 1551 1552 1551 1551 1550 1550 1550 1549 1549 1548 1548 1548 1547 1547 1547 1546 1546 1545 1545 1544 1543 1542 1542 1541 1541 1542 1542 1543 1544 1545 1545 1546 1546 1546 1546 1546 1546 1546 1547 1548 1549 1549 1550 1550 1550 1550 1551 1552 1553 1554 1554 1554 1554 1554 1555 1554 1554 1554 1553 1553 1553 1552 1552
1548 1549 1550 1550 1551 1552 1552 1552 1552 1553 1553 1553 1553 1553 1553 1553 1553 1553 1552 1552 1552 1551 1551 1551 1551 1551 1551 1550 1550 1549 1549 1548 1548 1548 1547 1547 1546 1546 1546 1545 1545 1544 1543 1543 1542 1542 1542 1543 1543 1543 1544 1544 1545 1545 1545 1545 1545 1545 1545 1546 1546 1548 1549 1550 1550 1550 1550 1550 1550 1551 1551 1552 1552 1553 1553 1554 1554 1553 1553 1553 1552 1552 1551 1550 1550
1550 1550 1551 1552 1552 1553 1553 1553 1553 1553 1554 1554 1554 1554 1553 1553 1553 1553 1552 1552 1552 1551 1551 1551 1551 1551 1550 1550 1550 1549 1549 1548 1548 1547 1547 1546 1546 1546 1546 1545 1544 1544 1543 1543 1543 1543 1543 1544 1544 1545 1545 1545 1545 1545 1545 1545 1544 1545 1546 1546 1547 1548 1550 1550 1550 1550 1549 1549 1550 1550 1551 1551 1552 1552 1553 1553 1552 1552 1551 1551 1551 1550 1549 1548 1548
1552 1552 1552 1553 1553 1553 1553 1553 1553 1554 1554 1554 1554 1553 1553 1553 1553 1552 1552 1552 1551 1551 1551 1551 1551 1550 1550 1550 1550 1549 1548 1548 1548 1547 1546 1546 1545 1545 1545 1544 1544 1543 1543 1542 1542 1542 1543 1544 1545 1545 1546 1546 1546 1546 1546 1545 1545 1546 1546 1547 1548 1549 1550 1550 1550 1550 1549 1549 1549 1550 1550 1551 1552 1552 1552 1552 1551 1550 1550 1549 1549 1548 1547 1546 1545
1554 1554 1554 1554 1554 1554 1554 1554 1553 1553 1553 1553 1553 1553 1552 1552 1552 1552 1552 1551 1551 1551 1551 1551 1551 1551 1550 1550 1549 1549 1548 1547 1547 1546 1545 1544 1544 1544 1543 1543 1542 1542 1542 1542 1542 1542 1542 1543 1544 1545 1546 1546 1545 1545 1546 1546 1546 1546 1546 1547 1548 1549 1549 1549 1549 1549 1549 1549 1549 1549 1550 1550 1551 1551 1551 1550 1549 1549 1548 1547 1547 1546 1545 1544 1543
1554 1554 1555 1554 1554 1554 1554 1553 1553 1553 1553 1552 1552 1552 1552 1552 1552 1552 1552 1552 1551 1551 1551 1551 1551 1550 1550 1550 1549 1548 1547 1546 1545 1545 1544 1543 1543 1543 1543 1542 1541 1541 1541 1541 1541 1541 1541 1542 1542 1543 1544 1544 1544 1544 1545 1546 1546 1546 1547 1547 1548 1548 1549 1549 1549 1549 1549 1548 1548 1548 1548 1548 1549 1549 1549 1548 1548 1547 1546 1545 1544 1544 1543 1542 1541
1555 1555 1555 1555 1555 1554 1554 1553 1553 1553 1553 1552 1552 1552 1552 1552 1552 1552 1552 1552 1552 1551 1551 1551 1550 1550 1550 1549 1549 1548 1547 1546 1545 1544 1543 1542 1542 1542 1542 1541 1541 1541 1541 1541 1541 1541 1541 1541 1542 1543 1544 1544 1545 1545 1545 1545 1546 1546 1547 1547 1548 1548 1548 1548 1548 1548 1548 1547 1547 1547 1547 1547 1547 1547 1546 1546 1545 1544 1544 1543 1542 1542 1541 1540 1539
1556 1556 1556 1555 1555 1555 1554 1554 1554 1553 1553 1553 1553 1552 1552 1553 1552 1552 1552 1552 1552 1552 1551 1551 1550 1550 1549 1549 1548 1548 1547 1546 1545 1544 1543 1542 1542 1542 1542 1542 1542 1541 1542 1542 1542 1542 1542 1542 1543 1544 1544 1545 1545 1546 1546 1546 1546 1546 1546 1547 1547 1547 1547 1547 1547 1547 1546 1546 1546 1546 1545 1545 1545 1544 1544 1543 1542 1542 1541 1541 1540 1539 1538 1537 1536
1555 1555 1555 1555 1555 1555 1554 1554 1554 1553 1553 1553 1553 1552 1552 1552 1552 1553 1552 1552 1552 1551 1551 1551 1550 1549 1549 1548 1548 1547 1546 1546 1545 1544 1543 1543 1543 1543 1543 1543 1543 1542 1542 1543 1543 1543 1543 1543 1543 1544 1544 1545 1545 1546 1546 1546 1546 1546 1546 1546 1546 1546 1546 1546 1545 1545 1545 1545 1544 1544 1543 1543 1542 1542 1541 1541 1540 1539 1539 1538 1537 1536 1535 1535 1534
1555 1555 1555 1555 1554 1554 1554 1554 1553 1553 1553 1552 1552 1552 1552 1551 1552 1552 1552 1551 1551 1551 1551 1551 1550 1550 1549 1548 1548 1547 1546 1546 1545 1545 1544 1544 1544 1544 1544 1544 1544 1544 1544 1544 1544 1544 1544 1544 1544 1544 1544 1544 1545 1545 1546 1546 1545 1545 1545 1545 1545 1544 1544 1544 1544 1544 1543 1543 1543 1542 1541 1541 1540 1539 1539 1538 1537 1537 1536 1535 1534 1533 1532 1532 1530
1555 1555 1554 1554 1554 1553 1553 1553 1552 1552 1551 1551 1551 1551 1550 1550 1550 1550 1550 1550 1550 1550 1550 1550 1549 1549 1549 1548 1548 1547 1546 1546 1545 1545 1545 1545 1545 1545 1545 1544 1544 1545 1544 1544 1545 1544 1544 1544 1544 1544 1544 1544 1544 1545 1545 1545 1545 1545 1544 1544 1544 1544 1543 1543 1543 1542 1542 1541 1541 1540 1539 1539 1538 1537 1536 1536 1535 1534 1533 1532 1531 1531 1530 1528 1527
1554 1553 1553 1553 1552 1552 1552 1551 1551 1550 1550 1550 1549 1549 1549 1549 1548 1548 1548 1549 1549 1549 1549 1549 1549 1549 1548 1548 1547 1547 1546 1546 1546 1545 1545 1545 1545 1545 1544 1544 1544 1544 1544 1544 1544 1544 1544 1544 1544 1544 1544 1544 1544 1544 1544 1544 1544 1544 1543 1543 1543 1542 1542 1541 1541 1540 1540 1539 1538 1537 1537 1536 1535 1534 1534 1533 1532 1531 1531 1530 1529 1528 1526 1525 1524
1552 1552 1551 1551 1551 1550 1550 1550 1550 1549 1549 1548 1548 1548 1547 1547 1547 1547 1547 1547 1547 1547 1548 1548 1548 1548 1548 1547 1547 1547 1546 1546 1545 1545 1545 1545 1544 1544 1543 1543 1543 1543 1544 1544 1544 1544 1544 1544 1544 1544 1544 1544 1544 1543 1543 1543 1543 1542 1541 1541 1540 1540 1539 1539 1538 1538 1537 1536 1536 1535 1534 1533 1532 1532 1531 1530 1529 1528 1527 1526 1525 1524 1523 1522 1521
1550 1550 1549 1549 1549 1549 1548 1548 1548 1548 1547 1547 1547 1547 1546 1546 1546 1546 1546 1546 1546 1546 1546 1546 1546 1546 1546 1546 1546 1546 1545 1545 1545 1545 1544 1544 1543 1543 1543 1543 1543 1543 1543 1543 1543 1543 1543 1543 1543 1543 1542 1542 1542 1542 1542 1542 1541 1541 1540 1539 1539 1538 1537 1537 1536 1536 1535 1534 1533 1532 1531 1530 1530 1529 1528 1527 1526 1525 1524 1523 1522 1521 1520 1519 1518
1547 1547 1547 1547 1547 1547 1546 1546 1546 1546 1546 1546 1546 1545 1545 1545 1545 1545 1545 1544 1545 1545 1545 1545 1545 1545 1545 1545 1545 1544 1544 1544 1544 1544 1544 1543 1543 1543 1543 1543 1543 1542 1542 1542 1542 1542 1542 1542 1542 1541 1541 1541 1541 1540 1540 1540 1539 1539 1538 1537 1537 1536 1535 1534 1534 1533 1533 1532 1531 1530 1529 1528 1527 1526 1525 1524 1523 1522 1521 1520 1520 1519 1518 1517 1516
1544 1544 1544 1544 1544 1544 1543 1544 1543 1543 1543 1543 1543 1544 1544 1544 1543 1543 1543 1543 1543 1543 1543 1544 1544 1544 1544 1544 1543 1543 1543 1543 1543 1543 1543 1543 1543 1543 1543 1543 1543 1542 1542 1542 1541 1541 1541 1541 1540 1540 1540 1539 1539 1538 1538 1538 1537 1536 1536 1535 1534 1533 1533 1532 1531 1530 1529 1529 1528 1527 1526 1526 1525 1524 1523 1522 1521 1520 1519 1518 1518 1517 1516 1515 1514
1542 1541 1541 1541 1541 1541 1540 1540 1540 1540 1540 1540 1541 1541 1541 1541 1541 1541 1541 1541 1541 1541 1542 1542 1542 1542 1542 1542 1542 1542 1543 1543 1543 1542 1542 1542 1542 1542 1542 1542 1542 1542 1542 1541 1541 1540 1540 1540 1539 1539 1538 1538 1537 1536 1536 1535 1535 1534 1533 1533 1532 1531 1530 1529 1529 1528 1527 1526 1525 1524 1524 1523 1522 1521 1520 1519 1518 1518 1517 1516 1515 1515 1514 1513 1512
1539 1539 1539 1538 1538 1538 1538 1537 1537 1537 1537 1537 1537 1538 1538 1539 1539 1539 1539 1539 1539 1539 1540 1540 1540 1540 1540 1541 1541 1541 1542 1542 1542 1542 1542 1542 1541 1541 1541 1541 1541 1541 1540 1540 1540 1539 1539 1538 1538 1537 1536 1536 1535 1534 1533 1533 1532 1531 1531 1530 1529 1529 1528 1527 1526 1525 1524 1524 1523 1522 1521 1520 1519 1518 1518 1517 1516 1516 1515 1514 1513 1513 1512 1511 1511
1537 1537 1536 1536 1535 1535 1535 1534 1534 1534 1533 1533 1533 1533 1534 1535 1536 1536 1536 1536 1536 1537 1537 1537 1537 1538 1538 1539 1539 1539 1540 1540 1540 1541 1541 1540 1540 1540 1540 1540 1539 1539 1539 1539 1538 1538 1537 1536 1536 1535 1534 1533 1533 1532 1531 1530 1530 1529 1529 1528 1527 1527 1526 1525 1524 1523 1522 1521 1520 1519 1519 1518 1517 1516 1516 1515 1515 1514 1513 1512 1512 1511 1511 1510 1509
1535 1534 1534 1533 1533 1532 1532 1531 1531 1530 1530 1530 1529 1530 1531 1532 1532 1533 1533 1534 1534 1534 1534 1534 1534 1535 1536 1537 1537 1537 1538 1538 1539 1539 1539 1539 1539 1539 1539 1538 1538 1538 1538 1537 1537 1536 1535 1534 1534 1533 1532 1531 1530 1529 1529 1528 1527 1527 1526 1526 1525 1525 1524 1523 1522 1521 1520 1519 1518 1517 1517 1516 1515 1515 1514 1514 1513 1512 1512 1511 1510 1510 1509 1508 1507
1532 1531 1531 1530 1530 1529 1528 1528 1527 1527 1527 1526 1526 1526 1527 1528 1528 1529 1530 1531 1531 1532 1532 1531 1532 1532 1533 1534 1535 1535 1535 1536 1536 1537 1537 1537 1537 1537 1537 1537 1536 1536 1536 1535 1534 1534 1533 1532 1531 1531 1530 1529 1528 1527 1527 1526 1525 1525 1524 1524 1523 1522 1521 1521 1520 1519 1518 1517 1516 1516 1515 1515 1514 1513 1513 1512 1512 1511 1510 1510 1509 1508 1508 1507 1506
1529 1528 1528 1527 1526 1526 1525 1525 1524 1523 1523 1523 1522 1522 1523 1524 1524 1525 1526 1527 1528 1528 1528 1529 1529 1530 1531 1531 1532 1533 1533 1533 1534 1534 1535 1535 1535 1535 1535 1534 1534 1534 1533 1533 1532 1531 1530 1529 1529 1528 1527 1527 1526 1526 1525 1524 1524 1523 1522 1521 1521 1520 1519 1519 1518 1517 1516 1516 1515 1514 1514 1513 1513 1512 1512 1511 1511 1510 1509 1509 1508 1507 1507 1506 1505
1526 1525 1525 1524 1523 1523 1522 1522 1521 1521 1520 1520 1520 1520 1520 1520 1521 1522 1523 1523 1524 1525 1525 1527 1528 1529 1529 1529 1530 1530 1531 1531 1531 1532 1533 1533 1533 1533 1533 1532 1532 1532 1531 1530 1530 1529 1528 1527 1526 1526 1525 1525 1524 1524 1523 1523 1522 1521 1520 1520 1519 1518 1517 1517 1516 1516 1515 1515 1514 1513 1513 1512 1512 1511 1511 1510 1510 1509 1509 1508 1507 1507 1506 1505 1504
1523 1523 1522 1521 1520 1520 1519 1519 1519 1518 1518 1518 1518 1518 1518 1518 1518 1519 1520 1521 1521 1522 1523 1524 1526 1527 1527 1528 1528 1528 1528 1529 1529 1530 1531 1531 1531 1531 1531 1530 1530 1529 1529 1528 1528 1527 1526 1525 1524 1524 1523 1523 1522 1522 1522 1521 1521 1520 1519 1518 1517 1516 1516 1515 1515 1514 1514 1514 1513 1513 1512 1512 1511 1511 1510 1510 1509 1508 1508 1507 1506 1506 1505 1504 1504
1521 1521 1520 1519 1518 1517 1517 1517 1516 1516 1516 1516 1516 1516 1516 1516 1516 1517 1518 1518 1518 1519 1521 1522 1523 1525 1526 1527 1527 1527 1526 1527 1528 1528 1528 1529 1529 1529 1529 1528 1528 1527 1527 1526 1526 1525 1525 1524 1523 1522 1521 1521 1520 1520 1520 1519 1519 1518 1517 1516 1516 1515 1515 1514 1514 1514 1513 1513 1512 1512 1511 1511 1510 1510 1509 1509 1508 1508 1507 1506 1506 1505 1504 1504 1503